CZ-6A DEB, 63923

Orbit data source: Space-Track

CZ-6A DEB, 63923 is space debris in LEO originally from a launch on Sun, 11 May 2025 UTC launched from the Taiyaun Space Center, China (TSC). Debris objects in space refer to the collection of defunct objects orbiting the Earth. Examples of debris include non-operational satellites, rocket bodies, and fragments generated from explosions, collisions, or faulty payload assembly.

Loading next visibility...
Identifier
63923, 2025-096F
Orbit
LEO
Country
Flag of CNCN / PRC
Related business
Manufacturer
Unknown
Mission
Spacecraft
Bus & Motor
Unknown
Mass
Unknown
Launch date (UTC)
2025-05-11 (10 months ago)
Launch vehicle
Unknown
Launch site
Taiyaun Space Center, China (TSC)
Object type
Payload
Rocket body
Debris
Shape & HBR
Unknown shape, 4.0 m
Radar Cross Section
Large (>1 m²)

Expand to show TLE details & history
Last TLE update: 8 hours ago

TLE from 8 hours ago
0 CZ-6A DEB
1 63923U 25096F   26061.80257485  .00000425  00000-0  16585-3 0  9998
2 63923  85.9896 232.4375 0013629  51.6272 308.6141 14.27200958 41972
Epoch: 2026-03-02T19:15Z
TLE epoch observation values (Epoch: 2026-03-02T19:15:42.467Z)
Latitude
-0.00004°
Longitude
142.91979°
Altitude
798.038 km
Speed
7.458 km/s
True Right ascension
15h 29m 44s
True Declination
0° 00' 00"
Sunlit
Object was in daylight at epoch
Visualization orbit readout
Latitude
Unknown
Longitude
Unknown
Altitude
Unknown
Speed
Unknown
Apparent Right ascension
Unknown
Apparent Declination
Unknown
Sunlit
N/A
Visualization observer readout
Local Sidereal Time
07:14:26
Azimuth
Unknown
Elevation
Unknown
Doppler factor
Unknown
Orbital elements
Apogee altitude
807.866 km
Perigee altitude
788.305 km
Semi-major axis
7,176.222 km
Eccentricity
0.00136
Inclination
85.9896°
RAAN
232.4375°
Arg. of periapsis
51.6272°
True anomaly
308.49194°
Mean anomaly
308.6141°
Eccentric anomaly
308.55303°
Mean motion
3.57026 °/min
Orbital period
100.83 mins
BSTAR
0.00016585
Loading maneuver chart data...
Computing Atmospheric mass density...
Loading historical data...
Loading historical data...
Loading historical data...
Loading historical data...
Loading historical data...
Loading historical data...
Loading historical data...
Other satellites on launch #96 in the year 2025 (2025-05-11 UTC)

Documentation

Showing up to 5 results
|